Dewpoint
50 50 50 49 49 49 49 49 49 49 48 48 48 47 47 47 48 49 49 48 47 46 46 46 47 46 46 46 48 51 50 50 48 47 47 47 55 57 55 56 56 56 56 52 52 51 50 51 51 53 53 51 52 50 52 52 53 51 45 43 41 39 36 42 39 40 45 44 46 49 50 48 46 46 44 44 41 40 39 37 36 34 32 31 31 32 33 32
49 49 49 48 48 48 47 48 48 48 48 48 47 46 47 48 48 49 48 48 46 45 46 45 46 46 46 46 50 51 48 48 46 45 43 48 57 55 54 56 55 55 55 52 51 49 49 49 51 51 51 49 53 50 51 50 52 46 44 41 39 41 40 41 42 45 44 45 48 49 50 49 46 49 49 41 38 39 38 38 37 35 33 31 29 28 28 29
50 49 49 48 48 47 47 46 47 48 48 47 46 47 47 47 48 49 48 47 47 45 44 44 44 44 45 46 49 50 47 46 44 43 40 51 55 54 54 54 54 54 51 51 50 50 48 49 50 50 50 49 49 48 50 49 50 47 44 39 41 42 42 43 43 46 47 48 48 48 45 42 40 44 46 39 35 33 31 33 35 32 31 29 28 26 27 27
50 49 49 47 46 46 46 46 46 46 46 46 47 46 47 47 47 48 47 46 45 44 44 44 46 47 45 50 50 47 46 40 39 40 39 50 54 55 54 54 55 50 48 49 49 50 51 51 51 48 49 48 48 49 47 49 47 48 43 38 42 42 41 42 45 46 48 48 48 47 45 41 36 35 41 39 37 33 31 30 29 29 28 27 26 25 26 25
50 50 49 47 47 46 45 45 45 45 46 46 45 46 46 46 46 48 46 44 44 44 44 45 46 45 47 50 49 46 44 27 35 39 41 50 53 53 53 53 51 46 47 49 50 50 50 49 50 49 46 46 46 47 46 47 47 47 44 44 42 42 42 45 46 46 47 48 48 47 46 43 39 32 32 39 38 32 31 28 27 26 26 25 24 24 24 24
50 49 48 48 47 45 45 45 45 45 46 46 46 45 45 45 45 46 44 43 43 44 45 47 48 47 50 49 45 42 31 14 43 38 46 50 52 50 54 52 51 44 47 49 49 49 50 49 46 44 43 42 41 40 46 46 47 43 44 43 44 43 43 45 45 44 45 47 47 45 41 36 34 31 31 30 30 29 28 27 24 23 23 23 22 22 20 20
49 47 48 47 46 46 44 44 44 44 44 44 45 46 45 44 44 45 43 43 42 45 47 49 47 50 49 47 44 44 39 38 39 42 46 50 49 50 53 48 47 43 44 47 47 47 47 46 43 42 41 40 40 39 45 45 45 43 42 42 43 44 44 44 44 45 46 45 44 42 40 37 36 33 30 28 29 28 27 26 25 23 22 20 19 18 18 17
48 47 46 46 44 44 44 44 43 44 44 44 44 44 44 44 44 44 43 43 45 46 47 49 47 50 47 45 43 39 40 39 37 39 46 49 41 39 48 44 42 43 44 44 46 45 45 43 42 44 39 38 40 39 43 43 44 42 42 41 42 41 40 44 45 44 44 42 40 38 36 34 34 31 29 28 27 26 24 23 22 21 21 20 17 15 16 15
47 46 45 45 43 43 43 43 44 44 44 44 44 44 45 45 44 44 45 45 45 46 49 49 50 49 48 44 42 31 35 39 37 37 40 40 37 36 43 43 39 42 40 41 44 46 43 43 44 43 37 40 43 41 42 41 39 42 41 42 42 39 40 44 44 44 41 38 36 34 33 32 32 31 28 28 26 26 25 23 22 20 19 18 16 15 13 13
46 46 45 44 43 43 43 43 44 44 44 44 44 44 45 45 45 46 47 48 49 46 50 49 50 47 45 43 36 27 36 37 37 39 38 39 36 37 37 37 38 43 44 40 44 45 44 44 41 43 42 41 43 40 41 39 34 41 43 43 42 41 39 43 44 43 42 39 37 36 36 36 36 40 29 27 25 24 24 22 21 19 17 16 15 13 12 11
46 45 45 43 43 43 43 43 43 43 43 43 43 44 46 47 48 48 49 50 50 50 50 50 49 46 45 41 30 30 36 36 39 38 39 38 37 36 36 36 36 41 41 39 41 36 43 44 44 44 41 36 42 39 40 39 41 42 43 42 40 40 39 43 43 43 42 40 38 36 35 33 33 32 29 27 25 23 22 21 19 17 15 14 13 11 11 10
45 45 44 43 43 43 43 43 43 43 43 43 44 47 48 48 49 50 50 48 51 51 49 50 50 45 42 37 34 34 36 37 39 37 39 39 37 38 39 38 36 39 43 42 39 39 42 43 45 40 35 42 37 41 39 38 41 42 41 37 37 39 39 38 42 44 43 40 37 37 37 30 30 29 28 26 24 21 20 18 18 17 14 11 10 8 8 6
45 44 43 43 42 42 43 42 42 43 43 44 46 48 49 51 50 50 48 46 46 48 51 47 45 44 40 33 35 36 36 39 38 36 36 39 38 37 39 40 40 38 40 42 38 41 41 43 42 39 41 41 38 32 39 37 40 39 37 35 36 36 34 34 40 44 42 41 39 41 35 27 29 29 27 26 24 22 19 15 15 15 13 11 8 7 6 7
44 43 43 42 42 42 43 43 44 44 43 45 47 48 50 49 48 48 47 47 50 51 48 47 46 42 37 34 37 40 39 42 35 34 35 38 35 37 36 38 40 41 44 40 41 41 43 41 43 41 42 37 34 36 33 35 33 32 33 35 30 29 28 31 40 41 41 43 42 41 35 28 27 27 29 28 28 23 16 15 12 13 13 11 9 7 6 6
44 43 42 42 42 42 43 44 44 44 44 46 48 49 50 52 50 49 50 52 51 49 47 46 44 38 33 34 40 45 49 41 33 33 36 38 36 35 35 36 37 38 41 42 42 42 42 43 41 39 35 37 36 34 32 32 31 32 29 27 31 27 28 30 37 41 41 41 43 41 36 29 26 24 25 25 23 20 15 13 11 11 11 11 9 7 5 5
43 43 42 42 43 43 44 45 45 45 46 46 48 49 50 50 51 52 52 51 50 49 48 45 41 38 33 33 35 43 39 33 33 35 36 37 37 36 36 36 36 36 39 39 40 41 42 42 38 37 34 34 34 31 31 31 28 31 28 26 27 28 28 31 30 33 38 41 38 39 34 25 24 21 22 23 21 18 14 13 13 12 9 8 7 7 4 4
43 42 42 43 43 44 44 45 47 48 47 47 48 49 49 46 46 45 45 46 45 47 46 37 40 38 27 37 41 35 35 35 38 33 34 35 37 38 38 36 35 35 37 40 42 41 39 38 37 35 35 32 31 31 26 23 25 27 29 24 28 26 27 26 30 34 38 40 37 31 29 23 21 20 19 20 19 16 13 12 11 11 8 7 6 5 2 1
43 42 43 43 43 44 45 45 48 47 46 47 48 48 46 45 43 41 40 42 41 44 41 43 38 29 26 36 32 33 35 35 36 36 36 34 37 36 38 33 36 37 37 35 38 36 36 36 35 30 33 31 29 28 21 17 22 24 25 22 25 26 27 25 27 30 36 35 36 25 21 18 17 17 17 18 17 14 11 10 8 8 7 6 4 3 1 -0
42 43 43 43 43 44 44 45 48 47 47 46 45 44 43 41 41 39 36 39 32 25 25 27 30 19 24 32 34 34 33 37 39 35 34 32 37 39 39 39 39 35 35 35 33 34 35 34 35 31 28 28 27 27 21 22 24 26 25 21 21 22 24 24 27 27 33 34 31 31 27 18 16 14 14 14 15 13 11 11 10 9 7 5 4 2 -1 -1
42 43 43 42 43 44 44 44 47 48 43 40 36 35 33 30 29 29 32 33 32 32 34 33 34 33 33 33 32 34 38 37 35 32 33 34 37 36 36 37 35 35 34 29 32 33 33 29 27 26 27 29 29 29 22 25 27 26 26 24 21 20 25 27 27 28 30 31 24 23 21 18 16 14 13 12 11 11 10 10 9 7 6 5 2 0 -1 -2
42 43 42 42 42 43 43 43 46 46 49 45 40 35 27 28 23 23 28 28 31 32 32 31 33 33 32 32 32 34 31 32 33 30 31 35 37 36 33 34 33 31 30 29 31 31 33 27 27 27 27 30 29 25 24 25 28 26 25 23 20 21 22 25 27 27 32 33 25 21 19 17 15 14 13 12 10 9 9 8 7 5 3 2 0 -1 -2 -3
42 42 42 42 41 42 43 42 43 43 44 43 39 34 33 33 37 35 33 26 29 31 31 31 33 28 29 30 33 35 34 29 30 30 32 36 36 30 32 32 31 28 28 30 28 27 24 22 26 24 26 27 25 25 27 25 25 26 20 21 20 23 23 26 28 30 30 31 24 23 24 17 15 13 13 12 10 6 4 4 3 2 2 1 1 -1 -3 -6
42 41 41 41 41 41 43 41 41 42 39 36 35 35 33 34 35 35 36 27 26 30 29 28 27 28 28 31 30 35 30 28 26 27 28 33 34 34 31 29 29 28 29 29 24 25 21 23 23 22 26 26 25 25 26 27 25 20 20 18 16 21 20 18 23 29 29 27 24 25 26 16 13 13 11 9 9 6 4 1 -1 0 -0 -3 -4 -4 -5 -6
41 40 40 40 40 39 42 39 40 37 33 34 33 32 33 34 36 35 33 25 25 26 29 27 26 26 26 24 26 29 27 24 26 26 27 33 31 33 31 30 27 27 24 27 26 21 18 21 21 21 23 26 26 25 26 25 22 24 23 16 17 21 23 21 21 26 26 28 27 25 26 22 15 14 12 9 8 6 4 1 0 -0 -0 -1 -1 -2 -5 -7
39 38 39 39 40 40 41 37 34 33 32 35 32 31 31 35 35 36 28 23 23 25 30 32 28 24 26 31 31 26 26 27 23 22 26 28 32 32 30 31 28 24 26 26 24 21 19 21 22 22 24 24 26 26 27 26 22 23 25 24 21 23 24 23 24 23 23 22 26 27 17 18 18 20 19 8 7 6 3 2 0 -1 -3 -4 -6 -5 -5 -6
38 38 38 37 39 39 40 31 29 28 33 32 31 30 32 34 35 35 23 18 13 21 25 23 28 23 28 24 27 30 31 23 27 24 32 25 29 33 30 27 29 22 24 24 21 21 20 17 20 21 23 24 24 22 21 24 21 21 21 24 25 24 24 23 22 20 17 16 24 29 18 13 19 19 19 12 11 7 3 4 -1 -4 -6 -7 -9 -9 -9 -10
38 38 37 37 37 36 32 28 30 29 30 29 28 30 34 36 36 35 19 12 9 20 19 26 22 22 25 23 25 29 18 21 27 26 23 25 29 34 28 25 27 27 27 24 16 17 18 16 17 19 22 22 21 20 19 22 21 17 19 22 23 23 22 22 21 18 16 21 25 27 22 18 17 20 20 13 13 10 5 4 -1 -5 -7 -9 -9 -10 -9 -9
39 37 36 37 39 33 27 27 28 27 25 26 29 34 35 36 36 33 15 -1 -1 21 19 20 22 29 23 23 24 22 18 19 21 23 21 25 30 28 29 25 25 25 25 20 11 20 17 15 15 18 20 20 19 15 15 17 20 17 18 21 22 22 22 22 22 19 18 19 16 23 25 18 18 17 15 14 15 13 11 6 1 -4 -6 -8 -8 -10 -7 -10
38 36 37 36 37 37 30 26 28 24 24 27 32 35 35 35 31 19 8 -5 6 19 24 18 27 21 21 24 18 17 19 20 20 20 24 28 28 27 24 25 22 21 22 24 19 18 17 18 14 12 16 17 13 13 14 16 19 17 21 21 18 19 20 22 21 20 20 18 14 22 23 16 14 16 14 14 16 17 13 10 3 -3 -6 -8 -10 -9 -11 -11
38 37 35 37 31 30 27 29 29 29 29 32 35 34 33 31 22 10 -3 -9 17 13 19 23 18 13 17 16 14 13 15 14 14 18 25 24 26 28 25 28 23 21 21 19 17 16 19 22 25 15 11 11 13 15 14 15 18 21 20 19 19 18 18 20 21 20 18 15 15 20 23 19 13 17 17 13 14 16 16 11 3 -1 -5 -9 -10 -9 -11 -14
39 38 35 32 28 27 26 22 24 27 33 34 35 29 29 18 13 -1 -10 2 17 17 17 12 11 14 13 16 16 9 14 12 15 14 23 24 23 23 24 24 25 23 21 20 16 13 15 14 13 11 14 11 16 16 18 19 19 19 19 19 19 17 17 19 16 18 14 12 15 16 18 20 13 13 17 14 11 15 15 10 4 -1 -5 -10 -10 -14 -15 -14
37 38 38 34 31 27 21 26 28 34 34 34 30 25 14 7 3 -4 -4 7 7 11 14 12 9 9 11 7 13 12 13 16 11 16 17 15 18 22 16 20 22 20 20 20 18 16 17 16 11 13 16 9 13 16 16 20 17 16 20 20 15 13 14 13 14 13 13 11 13 14 15 17 16 10 15 12 10 5 9 9 5 -2 -6 -10 -12 -11 -12 -13
35 35 36 32 34 32 32 34 33 34 33 35 25 18 12 2 -10 2 4 5 4 13 13 8 9 11 10 13 12 12 12 13 7 11 10 12 16 12 5 11 13 18 16 21 19 17 17 17 14 13 12 9 8 15 15 17 18 17 17 17 14 11 11 10 12 11 10 13 12 15 15 15 18 12 10 11 4 1 5 4 4 -0 -6 -11 -10 -10 -13 -13
34 32 28 29 28 29 32 33 30 33 30 36 17 16 7 -12 -9 21 5 6 6 7 7 8 7 8 13 13 9 9 11 8 8 10 9 14 16 18 13 8 8 15 19 20 19 18 14 14 16 15 13 5 6 9 12 15 15 15 19 17 16 13 12 9 8 8 10 9 11 12 13 12 15 13 3 -1 -0 1 -0 1 -1 -4 -9 -10 -11 -13 -14 -15
33 31 32 31 31 27 29 30 31 33 27 25 15 11 -7 -1 -4 2 4 8 11 6 6 8 6 10 11 8 9 10 10 9 7 6 11 16 17 18 16 14 9 10 11 17 19 18 18 15 9 6 4 3 4 4 7 12 15 17 19 19 15 15 14 9 6 9 7 8 10 12 11 11 10 5 4 2 -0 0 0 -2 -1 -5 -7 -8 -11 -13 -16 -16
35 25 29 26 27 22 26 30 30 31 24 22 15 0 -4 3 -11 3 9 7 9 7 8 5 13 12 5 7 6 8 8 7 7 6 9 8 9 14 7 7 10 7 16 15 17 16 15 15 8 5 7 7 1 5 4 6 15 15 14 14 16 16 15 11 9 8 10 10 8 14 10 10 7 5 5 2 1 -0 1 -1 -2 -4 -7 -11 -13 -15 -16 -16
27 30 18 26 23 24 25 29 29 30 26 19 10 3 7 7 -2 5 17 7 7 7 9 5 4 9 6 7 7 5 7 3 8 8 8 6 8 11 9 6 3 6 7 13 15 13 14 13 8 5 4 3 1 4 6 5 12 17 14 14 12 15 17 15 11 9 9 8 9 10 9 8 7 9 3 0 2 0 1 -1 -1 -3 -8 -12 -13 -15 -15 -16
31 31 26 25 20 23 26 29 28 27 22 19 8 25 8 6 8 12 12 8 6 5 8 7 6 8 8 5 5 7 5 6 8 6 10 8 6 7 6 6 4 6 7 8 13 11 13 10 8 7 2 1 3 7 5 1 7 10 13 15 15 12 12 13 12 9 7 7 8 7 6 6 8 6 6 1 1 2 1 0 -1 -4 -8 -9 -12 -14 -15 -15
28 21 3 16 23 23 27 28 30 23 17 11 8 7 18 11 8 9 9 10 9 5 5 5 4 7 7 8 7 5 4 4 7 5 5 3 2 6 4 6 5 5 7 9 11 9 10 10 7 5 1 5 6 8 9 8 8 10 11 13 11 14 11 11 12 6 8 6 3 5 2 2 7 7 5 4 2 2 1 -0 -1 -2 -5 -5 -9 -13 -15 -15
17 -1 5 21 22 24 24 31 28 17 16 6 8 9 12 9 9 7 7 10 6 6 6 8 4 6 4 5 6 5 4 4 6 5 2 4 5 2 3 3 5 5 4 6 6 8 10 10 5 5 6 3 5 5 8 9 11 11 14 11 12 10 11 11 9 8 7 4 0 1 1 4 1 3 5 4 3 2 1 -0 -1 -1 -2 -3 -8 -11 -14 -15
20 14 6 23 24 25 27 20 18 12 12 5 7 10 11 10 8 6 5 6 7 7 8 6 6 3 6 4 4 4 4 4 4 4 5 3 2 1 3 5 4 5 3 3 5 10 5 4 5 3 5 4 2 2 3 1 -0 4 11 12 12 8 8 6 7 9 6 4 3 -1 2 7 6 2 2 3 3 1 1 0 -1 -1 -1 -3 -6 -9 -12 -14
8 4 8 22 23 24 19 13 5 -3 7 8 6 10 16 16 6 4 4 4 6 6 5 9 4 7 5 5 7 4 7 5 6 3 3 3 3 3 4 2 4 4 6 8 8 7 9 4 3 0 4 4 -0 2 3 -0 2 1 3 4 4 5 7 7 3 4 4 6 3 -1 -2 -0 4 3 1 1 1 1 0 -0 -0 -0 -2 -4 -4 -6 -8 -11
21 12 14 24 22 26 18 10 15 14 7 8 5 6 4 5 6 5 6 8 8 4 6 6 6 6 4 5 6 6 6 7 6 5 3 2 1 2 2 1 1 6 6 3 4 5 12 -2 -3 -3 -4 -1 -5 -3 3 3 1 -1 -2 -1 3 8 8 7 3 3 5 3 2 1 -1 2 6 6 2 2 1 -1 -2 -0 5 5 -2 -3 -4 -5 -7 -9
18 15 9 20 23 27 5 -4 1 3 5 5 4 5 3 5 4 7 6 6 9 6 8 6 5 3 4 -0 4 5 6 0 4 4 2 1 2 -2 -2 -1 -1 7 5 6 8 10 1 3 0 -8 -7 -8 -7 0 -4 1 0 -1 -1 -1 -3 -0 2 0 -3 -5 2 4 4 1 -2 -1 5 5 3 2 -1 -0 -1 -2 1 4 -1 -3 -4 -6 -8 -9
10 15 19 13 18 15 6 6 6 8 13 6 2 5 5 3 3 3 3 5 3 3 4 3 2 4 2 0 -2 -1 1 0 -3 2 1 1 3 5 1 -4 -1 8 9 15 18 10 0 -0 -2 -7 -10 -15 -16 -16 -11 -6 -1 0 -5 -4 -6 2 2 4 3 1 1 -4 7 1 -1 4 3 1 4 2 -0 0 -0 -1 -1 1 1 -2 -4 -5 -8 -10
6 1 12 17 9 10 9 7 10 9 3 -1 1 3 4 5 3 2 2 3 1 1 -0 4 0 3 1 -1 1 -2 1 -1 -1 -4 1 -0 2 2 -1 -3 -1 7 14 14 7 6 -6 -7 -4 -6 -6 -8 -10 -6 -3 2 -2 -1 -1 -3 -3 -6 -2 0 3 1 2 -0 1 6 5 2 4 4 4 6 4 2 2 -0 1 0 -1 -2 -4 -4 -6 -9
11 10 4 1 3 7 6 7 7 6 8 8 -0 2 1 4 3 1 0 3 2 2 1 -1 2 4 0 2 -0 -1 -4 -2 -1 -1 -0 2 1 2 -5 -3 -2 3 13 15 10 3 -6 -5 -11 -11 -10 -11 -13 -10 -9 -2 -2 -7 -4 -4 -6 -5 -4 1 1 0 6 1 -2 4 4 3 5 6 7 6 5 4 4 4 1 5 2 2 -0 -3 2 -7
4 4 12 8 5 5 1 2 4 3 4 2 -1 0 2 3 -1 3 1 -0 -0 0 4 -3 0 -0 4 3 -2 -3 -7 -8 -8 -5 -4 -4 -3 -3 0 -0 -1 8 7 5 4 1 -6 -5 -13 -8 -9 -8 -9 -8 -12 -9 -6 -7 -7 -6 -6 -8 -7 -0 3 2 4 -0 -4 -6 1 6 5 8 7 5 6 4 3 4 5 6 1 1 -0 -1 0 -4
6 4 6 4 5 3 3 4 7 7 5 6 10 4 1 3 4 4 2 1 -2 0 3 2 4 4 4 -1 1 -2 -0 -5 -4 -5 -3 -3 1 -1 -0 -1 2 -4 -0 0 -2 -5 -6 -14 -13 -11 -12 -10 -12 -13 -14 -8 -8 -8 -7 -7 -7 -8 -8 -4 1 -3 1 4 -1 -9 -10 -4 -3 -3 3 8 8 3 2 1 -0 0 2 2 1 -1 -0 -1
6 7 2 6 4 2 -4 6 9 6 5 12 -1 3 2 3 5 1 1 2 -2 1 -2 0 1 1 1 -3 -0 1 3 1 -3 -3 -1 -2 -7 -0 1 2 -1 -3 -3 2 -6 -5 -3 -19 -4 -13 -14 -15 -16 -12 -12 -13 -12 -8 -5 -7 -7 -6 -8 -7 -6 -6 -11 -7 -6 -6 -8 -8 -8 -10 -9 -5 2 2 -0 0 1 1 0 1 -0 -1 -2 -2
12 9 12 9 6 3 1 -1 4 6 3 2 -2 1 3 2 5 5 1 -3 2 1 -1 3 3 -4 -5 -6 -3 -2 2 2 0 -5 -0 2 -0 2 1 1 4 -1 -2 -3 -5 -6 -7 -15 -16 -14 -17 -19 -19 -17 -13 -17 -16 -13 -11 -10 -9 -7 -7 -6 -8 -7 -8 -7 -9 -9 -8 -8 -7 -9 -10 -7 -3 2 2 2 1 1 1 1 -0 -1 -2 -3
10 9 9 16 7 16 3 -7 -6 2 -2 4 4 6 4 4 4 2 -1 -2 -2 -2 -1 1 -2 2 -7 -4 0 3 -2 -2 -5 -2 3 -1 0 2 1 -3 1 2 -2 -1 -11 -10 -13 -9 -12 -19 -15 -19 -24 -21 -16 -12 -14 -15 -10 -11 -13 -10 -8 -11 -8 -8 -8 -7 -8 -6 -9 -8 -13 -8 -7 -8 -1 1 3 2 1 0 -0 -0 -1 -1 -1 -2